TimePDT,TemperatureF,Dew PointF,Humidity,Sea Level PressureIn,VisibilityMPH,Wind Direction,Wind SpeedMPH,Gust SpeedMPH,PrecipitationIn,Events,Conditions,WindDirDegrees,DateUTC
12:53 AM,78.1,48.0,35,29.80,10.0,NNW,10.4,-,N/A,,Clear,340,2013-09-08 07:53:00
1:53 AM,75.9,48.0,37,29.80,10.0,WNW,4.6,-,N/A,,Clear,300,2013-09-08 08:53:00
2:53 AM,69.1,52.0,54,29.79,10.0,West,3.5,-,N/A,,Clear,270,2013-09-08 09:53:00
3:53 AM,66.9,52.0,59,29.79,10.0,WSW,3.5,-,N/A,,Clear,250,2013-09-08 10:53:00
4:53 AM,66.9,52.0,59,29.79,10.0,WNW,3.5,-,N/A,,Clear,300,2013-09-08 11:53:00
5:53 AM,68.0,52.0,56,29.80,10.0,Calm,Calm,-,N/A,,Clear,0,2013-09-08 12:53:00
6:53 AM,64.0,53.1,67,29.81,10.0,Calm,Calm,-,N/A,,Clear,0,2013-09-08 13:53:00
7:53 AM,69.1,53.1,57,29.82,10.0,Calm,Calm,-,N/A,,Clear,0,2013-09-08 14:53:00
8:53 AM,75.9,48.9,38,29.82,10.0,NNW,8.1,-,N/A,,Clear,330,2013-09-08 15:53:00
9:53 AM,81.0,48.9,33,29.82,10.0,NNW,6.9,-,N/A,,Clear,330,2013-09-08 16:53:00
10:53 AM,84.9,48.9,29,29.82,10.0,NW,6.9,-,N/A,,Clear,310,2013-09-08 17:53:00
11:53 AM,88.0,50.0,27,29.80,3.0,WNW,8.1,-,N/A,,Haze,290,2013-09-08 18:53:00
12:53 PM,91.0,48.9,23,29.79,3.0,NW,8.1,-,N/A,,Haze,320,2013-09-08 19:53:00
1:53 PM,93.9,51.1,23,29.77,4.0,West,9.2,-,N/A,,Haze,280,2013-09-08 20:53:00
2:40 PM,96.8,50.0,20,29.75,2.5,NW,8.1,-,N/A,,Haze,310,2013-09-08 21:40:00
2:53 PM,97.0,52.0,22,29.74,3.0,WNW,9.2,-,N/A,,Haze,300,2013-09-08 21:53:00
3:53 PM,99.0,51.1,20,29.72,10.0,NNW,10.4,-,N/A,,Clear,330,2013-09-08 22:53:00
4:53 PM,99.0,52.0,21,29.70,10.0,North,11.5,-,N/A,,Clear,350,2013-09-08 23:53:00
5:53 PM,97.0,51.1,21,29.69,10.0,NNW,12.7,-,N/A,,Clear,340,2013-09-09 00:53:00
6:53 PM,93.9,51.1,23,29.69,10.0,NNW,8.1,-,N/A,,Clear,330,2013-09-09 01:53:00
7:53 PM,87.1,53.1,31,29.70,10.0,WNW,5.8,-,N/A,,Clear,300,2013-09-09 02:53:00
8:53 PM,82.0,55.0,39,29.70,10.0,NW,5.8,-,N/A,,Clear,310,2013-09-09 03:53:00
9:53 PM,82.9,53.1,36,29.70,10.0,NW,6.9,-,N/A,,Clear,310,2013-09-09 04:53:00
10:53 PM,81.0,53.1,38,29.72,10.0,NW,4.6,-,N/A,,Clear,310,2013-09-09 05:53:00
11:53 PM,77.0,53.1,43,29.73,10.0,NW,5.8,-,N/A,,Clear,320,2013-09-09 06:53:00